Location: Krasnoyarskiy Pitomnik
(51.1333°N, 71.6167°E)
Time: 15:04:59
(UTC+00:00)

Cosmos 2322 Rocket - Pass Details

Date: 22 October 2021
Orbit: 832 x 851 km, 71.0° (Epoch: 26 November)

Event Time Altitude Azimuth Distance (km) Brightness Sun altitude
Rises 13:28:47 0° 180° (S) 3,364 5.4 -13.6°
Reaches altitude 10° 13:31:22 10° 172° (S) 2,435 4.5 -14.0°
Maximum altitude 13:36:25 36° 107° (ESE) 1,289 2.7 -14.8°
Enters shadow 13:41:23 11° 43° (NE) 2,415 4.2 -15.5°
